Vertical_Velocity
-0 -0 1 -0 2 0 -1 -1 1 -1 -1 0 -3 -2 -2 -2 -2 -3 -4 -1 -3 -0 -4 -5 -6 -4 -3 -1 -2 -3 -2 -4 -5 0 -0 -4 4 -1 3 2 1 -10 -6
0 2 1 1 -2 -1 1 0 -5 -1 -0 -3 -1 1 1 -1 0 -1 4 1 -4 -2 3 -1 -2 -0 -2 -1 -3 0 -3 -3 -3 -4 -2 0 1 13 5 1 2 -0 -5
1 2 -0 1 -2 1 0 -1 -2 -3 -3 -0 1 -1 -2 -2 -1 -3 -3 -5 -1 -2 -4 -4 0 2 -4 -4 1 0 -2 -1 -4 -6 2 -0 -6 -7 -8 -5 -4 -4 -3
3 2 -3 -1 -0 0 1 -0 -2 1 -1 1 -2 -1 -2 -1 0 -2 2 -2 1 6 2 -1 0 3 -2 0 -4 -5 -6 -4 -1 5 3 -2 1 -1 4 1 -6 -2 1
6 -2 -2 -0 -1 2 -0 2 -1 1 -1 -1 1 -2 1 1 1 -0 -4 2 -2 5 -4 -2 -0 2 -3 -1 -2 -3 -1 -1 1 -2 -0 -2 -3 1 -1 -5 0 -10 -6
-2 -1 0 -1 -1 1 2 3 -1 1 4 4 4 6 3 3 1 2 2 -2 -6 4 2 -3 -1 -1 1 -2 -1 -1 1 -2 2 -3 -1 -3 -4 -4 -2 -1 -1 -0 -7
-2 1 0 1 -1 -1 -0 -1 -3 -8 -3 2 -1 5 -2 -2 -2 1 2 -1 -1 1 1 -1 -0 -0 0 -0 -1 -1 1 -2 4 -1 -4 -1 -1 1 -0 -0 2 13 10
-0 1 2 1 -1 -3 -1 -0 1 -1 1 1 -7 -6 -4 -1 -3 -1 1 -8 -4 2 1 -1 -4 -1 -0 -1 -1 -0 1 -2 1 0 1 1 -2 1 -3 -2 1 -2 -1
0 5 1 3 0 4 -0 2 1 4 -1 -2 2 1 2 1 4 -4 -0 1 -9 1 2 3 -1 -1 -1 -1 -2 -1 -1 -0 -1 1 0 -0 2 2 3 -0 -1 2 3
4 3 0 -1 1 2 3 -3 0 1 3 -3 -0 -1 3 2 3 8 -5 -0 0 -3 2 1 -1 -3 -2 -2 -2 -1 -2 -1 0 -0 1 -1 1 2 -0 5 5 3 3
1 1 3 2 0 2 -1 -1 -3 3 5 -1 4 4 -1 -5 -3 4 -7 1 -1 -2 1 2 2 -1 -1 -1 -2 -3 -3 -0 1 2 -0 -1 -2 2 2 -2 0 -2 0
-0 -5 2 -2 -2 -1 -3 3 0 -2 3 -1 -2 1 -4 3 -6 3 -6 -0 0 -3 -3 -1 1 0 -1 -2 -2 -1 -1 -2 -0 1 -1 -1 -2 -2 4 3 2 4 -0
3 1 -2 -4 -1 -4 -3 -8 -0 1 -1 1 2 3 -1 0 -4 -2 -1 1 2 -0 -0 1 3 3 2 1 -1 -3 -1 -0 0 3 0 0 0 -2 -1 0 1 -0 1
2 -4 2 3 -4 -5 0 -2 -2 2 -2 -5 1 4 4 0 -3 -2 -1 -1 1 -1 -1 -1 -1 1 2 4 4 -1 -2 0 2 3 5 -1 -3 1 -2 -4 -2 -1 -2
-2 -4 2 -1 4 6 -0 11 -5 5 0 -2 4 -7 3 -3 -4 -3 -2 -1 -1 -1 0 1 2 3 2 3 3 4 1 -3 -4 -1 2 5 2 -1 1 1 -2 -1 0
8 2 -4 4 -4 -3 -2 7 4 2 6 1 3 -3 -1 -5 -7 -3 -4 -3 -5 -3 -4 -4 -5 -0 2 -0 5 3 4 2 1 -1 -2 -3 -1 -2 1 3 -0 -2 -3
7 2 8 -3 -0 -6 0 0 -7 -1 -5 -0 -4 0 -1 -3 -5 -3 -1 -4 -2 -3 -3 -3 -2 -1 0 -0 0 5 6 4 6 -0 -2 2 1 1 -4 -6 1 1 -2
-6 -0 7 -1 -2 4 -1 0 -4 -8 -1 -2 -4 -5 -2 -3 2 -2 2 3 3 3 2 -1 -3 -2 -3 -5 0 1 0 0 2 3 -1 -3 -2 0 4 3 -1 -2 -1
-3 -4 -8 45 -0 13 3 2 -5 -1 3 2 -2 -4 -6 -5 -1 -3 -3 -4 -4 -1 -0 -7 -6 -6 -2 4 2 2 1 0 1 -1 -8 -3 0 -2 2 5 3 4 3
-6 8 0 13 7 13 -1 2 -2 5 1 -3 -2 -3 -2 -1 2 1 -1 0 -1 -2 -0 -4 -5 -2 -8 -6 -3 0 1 2 0 -4 -9 -4 -2 -2 -2 -4 5 3 0
-7 -11 14 5 0 -1 3 -1 3 -2 -1 -3 -0 1 0 -1 -3 -4 -4 -4 -0 -0 -1 -1 -1 -5 -3 -10 -6 1 -1 -2 0 -0 -11 -6 -6 -5 -2 2 1 -1 4
-8 0 5 8 -1 -5 -5 2 -3 -3 -1 -0 -1 -5 -1 -3 3 2 -0 -3 -3 -1 -3 -5 -8 -4 -3 -13 -13 -11 -9 25 -1 4 -5 -9 -5 -3 -7 -5 -1 -2 -0
1 1 2 -4 -5 -4 3 3 0 1 1 -0 0 -0 -1 -2 -3 -6 -5 -3 -7 -8 -5 -4 -3 -3 -1 5 -4 -14 -11 -12 -2 22 10 -3 -4 0 -2 -3 -8 -2 -3
-7 -6 -5 1 6 4 1 1 1 3 4 0 3 0 0 -1 -2 -1 -0 -4 -2 -1 -4 -4 -4 -4 -2 -7 0 -4 2 -9 -16 -11 6 18 6 -0 3 -1 -1 -6 -6
4 8 9 4 -0 0 4 2 -3 -1 -0 1 0 0 2 -1 -2 -2 -4 -5 -3 -3 -5 -5 -1 -2 -3 -7 -5 -5 -4 -5 -5 -17 -22 3 -2 16 9 5 -2 -0 -4
-2 2 2 -3 2 1 -4 2 1 -2 -3 -1 -1 1 2 1 0 0 1 -1 -1 -1 -1 -2 -1 -2 -2 -2 -1 -3 -6 -7 -4 2 -10 -18 -11 16 8 10 -1 -2 2
Height
5863 5863 5862 5862 5861 5860 5859 5858 5856 5854 5852 5852 5851 5849 5847 5846 5843 5841 5840 5838 5836 5833 5832 5829 5826 5824 5822 5820 5819 5817 5817 5817 5816 5816 5816 5816 5817 5817 5817 5817 5818 5820 5821
5861 5860 5860 5860 5859 5858 5856 5855 5854 5853 5852 5852 5850 5848 5847 5845 5843 5841 5840 5838 5836 5834 5831 5829 5826 5823 5822 5819 5817 5816 5815 5814 5812 5812 5812 5812 5811 5812 5814 5816 5817 5817 5816
5859 5858 5858 5857 5856 5854 5854 5853 5853 5852 5851 5850 5849 5849 5849 5846 5844 5842 5840 5838 5836 5834 5831 5830 5827 5824 5822 5818 5816 5814 5812 5810 5809 5808 5808 5809 5810 5808 5807 5809 5811 5812 5813
5855 5855 5855 5854 5853 5852 5852 5851 5850 5850 5850 5850 5850 5850 5848 5846 5844 5842 5841 5839 5837 5834 5831 5828 5826 5824 5820 5818 5815 5813 5811 5809 5809 5808 5806 5805 5803 5802 5803 5804 5805 5805 5806
5851 5851 5852 5851 5850 5851 5851 5851 5850 5850 5850 5850 5850 5849 5847 5845 5844 5843 5840 5838 5835 5832 5829 5827 5825 5822 5819 5817 5815 5812 5810 5808 5807 5806 5805 5803 5802 5800 5798 5797 5797 5799 5800
5849 5849 5849 5850 5850 5850 5850 5849 5849 5850 5849 5848 5847 5846 5845 5844 5842 5841 5838 5836 5833 5829 5827 5824 5822 5819 5817 5815 5813 5811 5809 5807 5806 5804 5803 5801 5798 5797 5795 5795 5794 5791 5791
5847 5848 5848 5849 5850 5850 5849 5850 5849 5848 5847 5847 5846 5844 5843 5841 5840 5838 5835 5833 5830 5826 5824 5822 5819 5816 5814 5812 5810 5808 5805 5804 5803 5802 5801 5799 5796 5794 5791 5788 5787 5785 5784
5846 5847 5848 5849 5850 5850 5850 5849 5848 5847 5846 5846 5844 5841 5839 5838 5836 5834 5832 5829 5827 5822 5820 5817 5814 5812 5810 5808 5806 5803 5801 5800 5799 5798 5797 5795 5793 5792 5789 5787 5785 5785 5783
5845 5846 5848 5848 5849 5849 5848 5847 5845 5845 5844 5842 5840 5838 5837 5835 5834 5831 5827 5824 5821 5818 5816 5812 5809 5806 5804 5802 5800 5798 5796 5794 5795 5793 5791 5790 5788 5788 5787 5786 5784 5783 5783
5844 5846 5846 5846 5846 5846 5845 5844 5842 5841 5840 5839 5836 5835 5833 5830 5828 5824 5823 5819 5816 5813 5811 5808 5805 5801 5799 5797 5794 5793 5790 5789 5789 5788 5786 5785 5784 5783 5782 5780 5782 5781 5781
5843 5843 5843 5843 5842 5843 5841 5841 5839 5837 5836 5834 5832 5830 5827 5825 5821 5818 5816 5813 5812 5809 5805 5803 5799 5795 5793 5791 5789 5787 5784 5782 5782 5781 5780 5779 5778 5777 5777 5776 5775 5776 5775
5841 5841 5841 5839 5840 5840 5838 5837 5835 5833 5832 5830 5828 5825 5822 5819 5816 5814 5811 5808 5806 5804 5801 5797 5794 5790 5786 5783 5782 5780 5778 5776 5775 5773 5773 5772 5771 5770 5770 5770 5770 5767 5768
5840 5838 5837 5836 5836 5837 5836 5833 5831 5829 5828 5825 5822 5819 5816 5814 5811 5808 5805 5804 5801 5798 5794 5791 5788 5785 5781 5777 5775 5773 5772 5770 5768 5768 5765 5764 5764 5764 5763 5762 5763 5763 5763
5839 5836 5837 5837 5836 5835 5833 5831 5828 5824 5822 5819 5815 5812 5810 5808 5804 5801 5798 5795 5793 5789 5786 5783 5780 5778 5775 5773 5770 5767 5765 5763 5761 5760 5760 5757 5756 5755 5756 5755 5754 5755 5755
5836 5833 5831 5832 5832 5833 5832 5827 5825 5822 5817 5813 5811 5808 5804 5801 5796 5792 5788 5785 5783 5779 5778 5776 5773 5770 5768 5766 5764 5762 5759 5756 5753 5751 5750 5749 5749 5748 5745 5746 5747 5747 5747
5834 5832 5830 5829 5827 5824 5823 5820 5817 5812 5808 5804 5801 5800 5797 5794 5790 5785 5780 5776 5773 5770 5768 5765 5763 5762 5761 5758 5756 5754 5752 5750 5747 5744 5741 5740 5739 5737 5737 5735 5735 5736 5738
5828 5827 5827 5825 5823 5819 5817 5815 5809 5802 5799 5795 5792 5790 5787 5784 5781 5777 5774 5770 5765 5762 5760 5757 5755 5752 5750 5749 5746 5744 5742 5740 5738 5735 5733 5731 5730 5727 5725 5725 5724 5724 5725
5821 5818 5816 5817 5816 5812 5810 5808 5802 5797 5793 5790 5786 5782 5778 5774 5771 5768 5765 5761 5757 5753 5750 5747 5743 5741 5739 5736 5734 5731 5728 5726 5723 5721 5719 5718 5716 5715 5715 5714 5712 5711 5711
5818 5815 5814 5812 5808 5806 5802 5799 5796 5792 5789 5783 5779 5773 5768 5764 5760 5755 5750 5747 5744 5741 5738 5734 5731 5728 5725 5722 5719 5716 5714 5711 5706 5702 5702 5703 5702 5702 5700 5699 5700 5700 5699
5814 5810 5808 5806 5800 5798 5796 5793 5788 5786 5783 5777 5771 5766 5762 5756 5751 5745 5740 5736 5731 5727 5725 5722 5718 5714 5710 5708 5706 5703 5699 5696 5691 5685 5684 5683 5683 5682 5683 5683 5681 5682 5682
5807 5805 5801 5798 5795 5790 5788 5784 5781 5777 5772 5767 5762 5757 5752 5747 5741 5736 5732 5727 5722 5716 5711 5706 5702 5697 5692 5689 5685 5684 5683 5679 5673 5666 5664 5664 5662 5661 5660 5660 5661 5660 5661
5803 5801 5799 5795 5791 5785 5780 5777 5774 5769 5764 5758 5751 5743 5738 5733 5729 5724 5717 5711 5705 5699 5693 5688 5683 5678 5672 5666 5661 5657 5655 5658 5652 5645 5640 5640 5639 5638 5637 5636 5636 5636 5637
5799 5796 5793 5788 5783 5778 5774 5770 5765 5760 5754 5748 5742 5735 5729 5723 5716 5710 5703 5696 5688 5680 5673 5666 5659 5652 5647 5642 5637 5631 5627 5625 5623 5624 5620 5616 5614 5613 5612 5611 5609 5611 5613
5793 5788 5783 5777 5772 5769 5765 5760 5755 5751 5745 5739 5732 5725 5718 5711 5702 5694 5686 5677 5670 5663 5655 5646 5638 5630 5623 5616 5611 5606 5599 5593 5592 5595 5596 5594 5591 5587 5586 5585 5583 5584 5587
5788 5783 5779 5773 5767 5761 5758 5752 5747 5741 5735 5727 5720 5712 5704 5696 5687 5680 5671 5662 5652 5642 5632 5623 5614 5606 5598 5590 5583 5578 5574 5567 5560 5555 5562 5567 5564 5564 5561 5558 5555 5557 5558
5779 5775 5768 5763 5759 5755 5750 5746 5740 5733 5726 5719 5711 5702 5693 5683 5672 5662 5650 5638 5627 5619 5609 5600 5591 5582 5574 5565 5557 5549 5543 5538 5533 5527 5522 5533 5533 5539 5536 5530 5526 5527 5528